NEODyS-2

Near Earth Objects - Dynamic Site
NEODyS ∴ Observatories ∴ Site 691 ∴ Obs & residuals
Contact »
691  ▹ 
OBSERVATIONS AND RESIDUALS

691-Steward Observatory, Kitt Peak-Spacewatch

Detections | Residuals | Detections & Residuals

[1-200] [201-400] [401-600] [601-800] [801-1000] [1001-1200] [1201-1400] [1401-1600] [1601-1800] [1801-2000] [2001-2200] [2201-2400] [2401-2600] [2601-2800] [2801-3000] [3001-3200] [3201-3400] [3401-3600] [3601-3800] [3801-4000] [4001-4200] [4201-4400] [4401-4600] [4601-4800] [4801-5000] [5001-5200] [5201-5400] [5401-5600] [5601-5800] [5801-6000] [6001-6200] [6201-6400] [6401-6600] [6601-6800] [6801-7000] [7001-7200] [7201-7400] [7401-7600] [7601-7800] [7801-8000] [8001-8200] [8201-8400] [8401-8600] [8601-8800] [8801-9000] [9001-9200] [9201-9400] [9401-9600] [9601-9800] [9801-10000] [10001-10200] [10201-10400] [10401-10600] [10601-10800] [10801-11000] [11001-11200] [11201-11400] [11401-11600] [11601-11800] [11801-12000] [12001-12200] [12201-12400] [12401-12600] [12601-12800] [12801-13000] [13001-13200] [13201-13400] [13401-13600] [13601-13800] [13801-14000] [14001-14200] [14201-14400] [14401-14600] [14601-14800] [14801-15000] [15001-15200] [15201-15400] [15401-15600] [15601-15800] [15801-16000] [16001-16200] [16201-16400] [16401-16600] [16601-16800] [16801-17000] [17001-17200] [17201-17400] [17401-17600] [17601-17800] [17801-18000] [18001-18200] [18201-18400] [18401-18600] [18601-18800] [18801-19000] [19001-19200] [19201-19400] [19401-19600] [19601-19800] [19801-20000] [20001-20200] [20201-20400] [20401-20600] [20601-20800] [20801-21000] [21001-21200] [21201-21400] [21401-21600] [21601-21800] [21801-22000] [22001-22200] [22201-22400] [22401-22600] [22601-22800] [22801-23000] [23001-23200] [23201-23400] [23401-23600] [23601-23800] [23801-24000] [24001-24200] [24201-24400] [24401-24600] [24601-24800] [24801-25000] [25001-25200] [25201-25400] [25401-25600] [25601-25800] [25801-26000] [26001-26200] [26201-26400] [26401-26600] [26601-26800] [26801-27000] [27001-27200] [27201-27400] [27401-27600] [27601-27800] [27801-28000] [28001-28200] [28201-28400] [28401-28600] [28601-28800] [28801-29000] [29001-29200] [29201-29400] [29401-29600] [29601-29800] [29801-30000] [30001-30200] [30201-30400] [30401-30600] [30601-30800] [30801-31000] [31001-31200] [31201-31400] [31401-31600] [31601-31800] [31801-32000] [32001-32200] [32201-32400] [32401-32600] [32601-32800] [32801-33000] [33001-33200] [33201-33400] [33401-33600] [33601-33800] [33801-34000] [34001-34200] [34201-34400] [34401-34600] [34601-34800] [34801-35000] [35001-35200] [35201-35400] [35401-35600] [35601-35800] [35801-36000] [36001-36200] [36201-36400] [36401-36600] [36601-36800] [36801-37000] [37001-37200] [37201-37400] [37401-37600] [37601-37800] [37801-38000] [38001-38200] [38201-38400] [38401-38600] [38601-38800] [38801-39000] [39001-39200] [39201-39400] [39401-39600] [39601-39800] [39801-40000] [40001-40200] [40201-40400] [40401-40600] [40601-40800] [40801-41000] [41001-41200] [41201-41400] [41401-41600] [41601-41800] [41801-42000] [42001-42200] [42201-42400] [42401-42600] [42601-42800] [42801-43000] [43001-43200] [43201-43400] [43401-43600] [43601-43800] [43801-44000] [44001-44200] [44201-44400] [44401-44600] [44601-44800] [44801-45000] [45001-45200] [45201-45400] [45401-45600] [45601-45800] [45801-46000] [46001-46200] [46201-46400] [46401-46600] [46601-46800] [46801-47000] [47001-47200] [47201-47400] [47401-47600] [47601-47800] [47801-48000] [48001-48200] [48201-48400] [48401-48600] [48601-48800] [48801-49000] [49001-49200] [49201-49400] [49401-49600] [49601-49800] [49801-50000] [50001-50200] [50201-50388]

Designation T Tech N Date Right Ascension Declination Apparent Magnitude Star Catalog Site code χ Used A Used M
yr-mo-day precision hr:min:sec precision rms F bias residual deg min sec precision rms F bias residual mag/col rms residual
2020WA5 O C K 2021-01-11.38471 1.000E-05 12:16:32.200 1.500E-01 0.612 F 0.330 -0.157 +14° 06' 23.60" 1.000E-01 0.612 F 0.238 -0.107 18.9 R 0.70 0.54 o 691 0.31 Yes Yes
2020WA5 O C 2021-01-11.38712 1.000E-05 12:16:32.680 1.500E-01 0.612 F 0.330 -0.261 +14° 06' 04.00" 1.000E-01 0.612 F 0.238 -0.179 o 691 0.52 Yes No
2020AD3 O C K 2021-01-11.39076 1.000E-05 10:48:58.760 1.500E-01 0.500 F 0.288 0.863 +00° 10' 14.60" 1.000E-01 0.500 F 0.220 0.016 20.9 R 0.70 0.85 o 691 1.74 Yes Yes
2020AD3 O C K 2021-01-11.39567 1.000E-05 10:48:56.500 1.500E-01 0.500 F 0.288 -0.382 +00° 10' 25.20" 1.000E-01 0.500 F 0.220 0.368 20.5 R 0.70 0.45 o 691 1.07 Yes Yes
2020AD3 O C K 2021-01-11.40057 1.000E-05 10:48:54.370 1.500E-01 0.500 F 0.288 0.268 +00° 10' 35.00" 1.000E-01 0.500 F 0.220 -0.060 21.0 R 0.70 0.95 o 691 0.55 Yes Yes
2019YP5 O C K 2021-01-11.41650 1.000E-05 11:01:18.360 1.500E-01 0.500 F 0.160 0.138 +23° 29' 03.60" 1.000E-01 0.500 F 0.117 -0.585 21.9 R 0.70 0.96 o 691 1.21 Yes Yes
2019YP5 O C K 2021-01-11.42321 1.000E-05 11:01:18.710 1.500E-01 0.500 F 0.160 -0.107 +23° 29' 00.10" 1.000E-01 0.500 F 0.117 -0.084 21.2 R 0.70 0.27 o 691 0.27 Yes Yes
2019YP5 O C K 2021-01-11.42992 1.000E-05 11:01:19.100 1.500E-01 0.500 F 0.160 0.212 +23° 28' 56.40" 1.000E-01 0.500 F 0.117 0.238 21.3 R 0.70 0.37 o 691 0.64 Yes Yes
2010OL100 O C K 2021-01-12.07977 1.000E-05 00:35:44.590 1.500E-01 0.500 F -0.397 0.508 -14° 29' 36.50" 1.000E-01 0.500 F 0.199 0.040 o 691 1.08 Yes No
2010OL100 O C K 2021-01-12.09338 1.000E-05 00:35:50.360 1.500E-01 0.500 F -0.397 0.060 -14° 29' 32.60" 1.000E-01 0.500 F 0.199 0.333 o 691 0.69 Yes No
2020MU1 O C K 2021-01-12.11062 1.000E-05 00:48:04.150 1.500E-01 0.500 F -0.221 0.155 +19° 10' 48.40" 1.000E-01 0.500 F 0.284 -0.081 21.1 R 0.70 -0.40 o 691 0.42 Yes Yes
2020MU1 O C K 2021-01-12.12118 1.000E-05 00:48:04.750 1.500E-01 0.500 F -0.221 0.165 +19° 11' 53.90" 1.000E-01 0.500 F 0.284 0.050 22.2 R 0.70 0.70 o 691 0.39 Yes Yes
2020TB12 O C H 2021-01-12.16070 1.000E-05 01:57:41.870 1.500E-01 0.500 F -0.255 -0.308 -21° 22' 14.50" 1.000E-01 0.500 F 0.069 -0.040 19.9 R 0.70 0.10 o 691 0.62 Yes Yes
2020TB12 O C H 2021-01-12.16240 1.000E-05 01:57:41.770 1.500E-01 0.500 F -0.255 0.193 -21° 22' 11.80" 1.000E-01 0.500 F 0.069 -0.180 20.2 R 0.70 0.40 o 691 0.53 Yes Yes
2020TB12 O C H 2021-01-12.16410 1.000E-05 01:57:41.610 1.500E-01 0.500 F -0.255 -0.148 -21° 22' 08.50" 1.000E-01 0.500 F 0.069 0.277 19.8 R 0.70 0.00 o 691 0.63 Yes Yes
2020UF7 O C K 2021-01-12.18246 1.000E-05 03:21:14.350 1.500E-01 0.500 F -0.167 0.795 -04° 39' 04.30" 1.000E-01 0.500 F 0.166 0.459 20.3 R 0.70 -0.91 o 691 1.85 Yes Yes
2020UF7 O C K 2021-01-12.18714 1.000E-05 03:21:14.940 1.500E-01 0.500 F -0.167 0.098 -04° 38' 57.00" 1.000E-01 0.500 F 0.166 0.135 21.9 R 0.70 0.69 o 691 0.34 Yes Yes
2020UF7 O C K 2021-01-12.19182 1.000E-05 03:21:15.570 1.500E-01 0.500 F -0.167 -0.026 -04° 38' 49.30" 1.000E-01 0.500 F 0.166 0.203 20.6 R 0.70 -0.61 o 691 0.41 Yes Yes
2021AO O C K 2021-01-12.19946 1.000E-05 04:39:15.350 1.500E-01 0.500 F -0.253 0.062 +12° 16' 22.40" 1.000E-01 0.500 F 0.312 -0.023 o 691 0.13 Yes No
2021AO O C K 2021-01-12.20703 1.000E-05 04:39:18.570 1.500E-01 0.500 F -0.253 0.032 +12° 16' 27.00" 1.000E-01 0.500 F 0.312 -0.047 o 691 0.11 Yes No
2021AO O C K 2021-01-12.21459 1.000E-05 04:39:21.820 1.500E-01 0.500 F -0.253 0.516 +12° 16' 31.50" 1.000E-01 0.500 F 0.312 -0.143 o 691 1.08 Yes No
2011WL2 O C K 2021-01-12.22962 1.000E-05 05:01:17.020 1.500E-01 0.500 F -0.241 -0.111 -15° 01' 06.20" 1.000E-01 0.500 F 0.179 0.081 21.3 R 0.70 0.33 o 691 0.28 Yes Yes
2011WL2 O C K 2021-01-12.23614 1.000E-05 05:01:16.620 1.500E-01 0.500 F -0.241 0.093 -15° 00' 59.80" 1.000E-01 0.500 F 0.179 -0.020 21.5 R 0.70 0.53 o 691 0.19 Yes Yes
2011WL2 O C K 2021-01-12.24267 1.000E-05 05:01:16.230 1.500E-01 0.500 F -0.241 0.443 -15° 00' 53.30" 1.000E-01 0.500 F 0.179 -0.039 21.0 R 0.70 0.03 o 691 0.89 Yes Yes
2018KP1 O C H 2021-01-12.24872 1.000E-05 04:49:04.420 1.500E-01 0.500 F -0.139 0.076 -28° 13' 29.50" 1.000E-01 0.500 F 0.133 -0.352 19.0 R 0.70 0.01 o 691 0.73 Yes Yes
2018KP1 O C H 2021-01-12.24975 1.000E-05 04:49:05.180 1.500E-01 0.500 F -0.139 0.063 -28° 13' 15.20" 1.000E-01 0.500 F 0.133 0.357 18.8 R 0.70 -0.19 o 691 0.74 Yes Yes
2018KP1 O C H 2021-01-12.25077 1.000E-05 04:49:05.960 1.500E-01 0.500 F -0.139 0.410 -28° 13' 02.20" 1.000E-01 0.500 F 0.133 -0.107 19.5 R 0.70 0.51 o 691 0.86 Yes Yes
2020WD1 O C K 2021-01-12.25309 1.000E-05 03:40:19.730 1.500E-01 0.500 F -0.294 0.272 +02° 56' 53.20" 1.000E-01 0.500 F 0.129 0.171 21.4 R 0.70 0.21 o 691 0.65 Yes Yes
2020WD1 O C K 2021-01-12.25941 1.000E-05 03:40:20.180 1.500E-01 0.500 F -0.294 0.293 +02° 57' 03.80" 1.000E-01 0.500 F 0.129 -0.077 21.3 R 0.70 0.11 o 691 0.61 Yes Yes
2020WD1 O C K 2021-01-12.26572 1.000E-05 03:40:20.620 1.500E-01 0.500 F -0.294 0.120 +02° 57' 14.80" 1.000E-01 0.500 F 0.129 0.096 20.7 R 0.70 -0.49 o 691 0.31 Yes Yes
2009HD82 O C K 2021-01-12.28021 1.000E-05 03:57:40.640 1.500E-01 0.500 F -0.312 0.147 +01° 48' 56.10" 1.000E-01 0.500 F 0.156 0.306 21.4 R 0.70 0.05 o 691 0.69 Yes Yes
2009HD82 O C K 2021-01-12.29345 1.000E-05 03:57:42.370 1.500E-01 0.500 F -0.312 -0.763 +01° 49' 20.40" 1.000E-01 0.500 F 0.156 -0.122 21.3 R 0.70 -0.06 o 691 1.56 Yes Yes
2015XJ261 O C 2021-01-12.34291 1.000E-05 08:41:09.990 1.500E-01 0.500 F 0.090 -0.592 +11° 16' 45.00" 1.000E-01 0.500 F 0.253 0.412 19.5 V 0.70 -0.05 o 691 1.45 Yes Yes
2021AY2 O C K 2021-01-12.34291 1.000E-05 08:42:39.020 1.500E-01 0.500 F 0.090 -0.307 +11° 51' 49.50" 1.000E-01 0.500 F 0.253 -0.228 21.4 R 0.70 0.19 o 691 0.79 Yes Yes
2021AY2 O C K 2021-01-12.35083 1.000E-05 08:42:42.350 1.500E-01 0.500 F 0.090 0.735 +11° 51' 15.50" 1.000E-01 0.500 F 0.253 -0.205 o 691 1.58 Yes No
2015XJ261 O C 2021-01-12.35478 1.000E-05 08:41:09.250 1.500E-01 0.500 F 0.090 -0.348 +11° 17' 11.10" 1.000E-01 0.500 F 0.253 0.392 19.6 V 0.70 0.05 o 691 1.05 Yes Yes
2021AY2 O C K 2021-01-12.35874 1.000E-05 08:42:45.520 1.500E-01 0.500 F 0.090 -0.384 +11° 50' 41.70" 1.000E-01 0.500 F 0.253 -0.014 20.9 R 0.70 -0.31 o 691 0.79 Yes Yes
2015XJ261 O C 2021-01-12.36534 1.000E-05 08:41:08.590 1.500E-01 0.500 F 0.090 -0.149 +11° 17' 33.80" 1.000E-01 0.500 F 0.253 -0.131 19.8 V 0.70 0.25 o 691 0.40 Yes Yes
2021AL1 O C K 2021-01-12.36967 1.000E-05 09:13:36.200 1.500E-01 0.500 F 0.088 0.818 +20° 35' 21.20" 1.000E-01 0.500 F 0.228 0.210 19.0 R 0.70 -0.04 o 691 1.72 Yes Yes
2021AL1 O C K 2021-01-12.37173 1.000E-05 09:13:39.340 1.500E-01 0.500 F 0.088 -0.065 +20° 35' 11.70" 1.000E-01 0.500 F 0.228 0.020 18.9 R 0.70 -0.14 o 691 0.14 Yes Yes
2021AL1 O C K 2021-01-12.37378 1.000E-05 09:13:42.570 1.500E-01 0.500 F 0.088 0.509 +20° 35' 02.40" 1.000E-01 0.500 F 0.228 0.006 19.0 R 0.70 -0.04 o 691 1.04 Yes Yes
2021AB4 O C K 2021-01-12.38389 1.000E-05 09:48:44.180 1.500E-01 0.500 F 0.076 0.261 -00° 02' 11.00" 1.000E-01 0.500 F 0.265 -0.420 20.5 R 0.70 0.84 o 691 1.00 Yes Yes
2021AB4 O C K 2021-01-12.39034 1.000E-05 09:48:40.480 1.500E-01 0.500 F 0.076 0.233 -00° 02' 14.80" 1.000E-01 0.500 F 0.265 -0.012 19.4 R 0.70 -0.27 o 691 0.48 Yes Yes
2021AC4 O C K 2021-01-12.40488 1.000E-05 10:19:20.450 1.500E-01 0.500 F 0.121 0.125 +20° 41' 25.90" 1.000E-01 0.500 F 0.243 -0.189 20.8 R 0.70 0.14 o 691 0.48 Yes Yes
2021AC4 O C K 2021-01-12.41528 1.000E-05 10:19:26.260 1.500E-01 0.500 F 0.121 -0.757 +20° 41' 53.10" 1.000E-01 0.500 F 0.243 -0.625 20.7 R 0.70 0.03 o 691 2.07 Yes Yes
2021AC4 O C K 2021-01-12.42570 1.000E-05 10:19:32.070 1.500E-01 0.500 F 0.121 -1.086 +20° 42' 19.80" 1.000E-01 0.500 F 0.243 -0.623 20.5 R 0.70 -0.18 o 691 2.64 Yes Yes
2019AP6 O C K 2021-01-12.49628 1.000E-05 13:40:48.970 1.500E-01 0.500 F 0.218 1.407 -01° 44' 51.00" 1.000E-01 0.500 F 0.067 0.266 o 691 2.89 Yes No
2019AP6 O C K 2021-01-12.50249 1.000E-05 13:40:50.470 1.500E-01 0.500 F 0.218 0.339 -01° 45' 05.00" 1.000E-01 0.500 F 0.067 0.023 o 691 0.69 Yes No
2019AP6 O C K 2021-01-12.50869 1.000E-05 13:40:51.970 1.500E-01 0.500 F 0.218 -0.679 -01° 45' 18.70" 1.000E-01 0.500 F 0.067 0.060 o 691 1.38 Yes No
2010OL100 O C K 2021-01-13.08093 1.000E-05 00:42:53.510 1.500E-01 0.500 F -0.368 -0.379 -14° 24' 54.90" 1.000E-01 0.500 F 0.282 -0.314 20.6 R 0.70 -0.11 o 691 1.01 Yes Yes
2010OL100 O C K 2021-01-13.08650 1.000E-05 00:42:55.880 1.500E-01 0.500 F -0.368 -0.057 -14° 24' 52.90" 1.000E-01 0.500 F 0.282 -0.046 20.8 R 0.70 0.09 o 691 0.15 Yes Yes
2010OL100 O C K 2021-01-13.09205 1.000E-05 00:42:58.180 1.500E-01 0.500 F -0.368 -0.632 -14° 24' 50.80" 1.000E-01 0.500 F 0.282 0.323 20.1 R 0.70 -0.61 o 691 1.51 Yes Yes
2017BQ93 O C H 2021-01-13.12746 1.000E-05 02:03:06.790 1.500E-01 0.500 F -0.389 0.284 -06° 53' 57.50" 1.000E-01 0.500 F 0.221 -0.441 18.2 R 0.70 -0.06 o 691 1.06 Yes Yes
2017BQ93 O C H 2021-01-13.12841 1.000E-05 02:03:06.850 1.500E-01 0.500 F -0.389 0.327 -06° 54' 17.20" 1.000E-01 0.500 F 0.221 -0.510 18.1 R 0.70 -0.16 o 691 1.23 Yes Yes
2017BQ93 O C H 2021-01-13.12936 1.000E-05 02:03:06.880 1.500E-01 0.500 F -0.389 -0.077 -06° 54' 36.60" 1.000E-01 0.500 F 0.221 -0.280 18.5 R 0.70 0.24 o 691 0.59 Yes Yes
2020XR O C 2021-01-13.13092 1.000E-05 02:18:52.440 1.500E-01 0.500 F -0.324 -0.584 -06° 39' 47.20" 1.000E-01 0.500 F 0.112 0.257 19.9 V 0.70 -0.09 o 691 1.28 Yes Yes
2020XR O C 2021-01-13.13208 1.000E-05 02:18:53.000 1.500E-01 0.500 F -0.324 0.051 -06° 39' 47.60" 1.000E-01 0.500 F 0.112 -0.114 19.8 V 0.70 -0.19 o 691 0.25 Yes Yes
2020XR O C 2021-01-13.13323 1.000E-05 02:18:53.510 1.500E-01 0.500 F -0.324 0.008 -06° 39' 47.00" 1.000E-01 0.500 F 0.112 0.515 20.0 V 0.70 0.01 o 691 1.03 Yes Yes
2021AP2 O C K 2021-01-13.16243 1.000E-05 02:27:34.220 1.500E-01 0.500 F -0.103 0.049 +31° 57' 08.40" 1.000E-01 0.500 F 0.147 0.051 21.0 R 0.70 0.25 o 691 0.15 Yes Yes
2021AP2 O C K 2021-01-13.16817 1.000E-05 02:27:33.200 1.500E-01 0.500 F -0.103 0.333 +31° 56' 59.20" 1.000E-01 0.500 F 0.147 0.047 21.3 R 0.70 0.55 o 691 0.69 Yes Yes
2021AP2 O C K 2021-01-13.17391 1.000E-05 02:27:32.120 1.500E-01 0.500 F -0.103 -0.159 +31° 56' 49.30" 1.000E-01 0.500 F 0.147 -0.646 o 691 1.36 Yes No
2021AU5 O C K 2021-01-13.18688 1.000E-05 03:21:33.970 1.500E-01 0.500 F -0.544 -0.413 -14° 17' 42.40" 1.000E-01 0.500 F 0.169 0.932 20.1 R 0.70 -0.64 o 691 2.09 Yes Yes
2021AU5 O C K 2021-01-13.19615 1.000E-05 03:21:29.340 1.500E-01 0.500 F -0.544 -0.181 -14° 16' 16.90" 1.000E-01 0.500 F 0.169 0.786 21.1 R 0.70 0.36 o 691 1.65 Yes Yes
2021AU5 O C K 2021-01-13.20542 1.000E-05 03:21:24.690 1.500E-01 0.500 F -0.544 -0.351 -14° 14' 51.00" 1.000E-01 0.500 F 0.169 0.947 20.8 R 0.70 0.06 o 691 2.07 Yes Yes
2020UF7 O C K 2021-01-13.21690 1.000E-05 03:24:13.760 1.500E-01 0.500 F -0.206 -0.153 -04° 10' 54.80" 1.000E-01 0.500 F 0.125 -0.045 21.2 R 0.70 -0.02 o 691 0.32 Yes Yes
2020UF7 O C K 2021-01-13.22620 1.000E-05 03:24:15.130 1.500E-01 0.500 F -0.206 0.369 -04° 10' 38.80" 1.000E-01 0.500 F 0.125 0.435 20.7 R 0.70 -0.52 o 691 1.15 Yes Yes
2020UF7 O C K 2021-01-13.23551 1.000E-05 03:24:16.490 1.500E-01 0.500 F -0.206 0.552 -04° 10' 23.60" 1.000E-01 0.500 F 0.125 0.078 20.9 R 0.70 -0.32 o 691 1.12 Yes Yes
2020WD1 O C K 2021-01-13.25073 1.000E-05 03:41:50.090 1.500E-01 0.500 F -0.335 -0.014 +03° 25' 48.40" 1.000E-01 0.500 F 0.089 -0.002 21.5 R 0.70 0.30 o 691 0.03 Yes Yes
2020WD1 O C K 2021-01-13.25594 1.000E-05 03:41:50.510 1.500E-01 0.500 F -0.335 0.378 +03° 25' 57.60" 1.000E-01 0.500 F 0.089 0.135 21.4 R 0.70 0.20 o 691 0.81 Yes Yes
2020WD1 O C K 2021-01-13.26115 1.000E-05 03:41:50.910 1.500E-01 0.500 F -0.335 0.434 +03° 26' 06.60" 1.000E-01 0.500 F 0.089 0.075 21.2 R 0.70 -0.01 o 691 0.89 Yes Yes
2021AO O C K 2021-01-13.28395 1.000E-05 04:46:58.820 1.500E-01 0.500 F -0.194 0.215 +12° 26' 53.50" 1.000E-01 0.500 F 0.190 0.266 20.9 R 0.70 -0.01 o 691 0.69 Yes Yes
2021AO O C K 2021-01-13.29201 1.000E-05 04:47:02.020 1.500E-01 0.500 F -0.194 -0.525 +12° 26' 57.10" 1.000E-01 0.500 F 0.190 -0.376 20.8 R 0.70 -0.11 o 691 1.31 Yes Yes
2021AO O C K 2021-01-13.30006 1.000E-05 04:47:05.310 1.500E-01 0.500 F -0.194 0.082 +12° 27' 01.60" 1.000E-01 0.500 F 0.190 -0.094 20.9 R 0.70 -0.01 o 691 0.25 Yes Yes
2021AT2 O C K 2021-01-13.31275 1.000E-05 08:23:04.990 1.500E-01 0.500 F 0.032 0.044 +17° 29' 29.60" 1.000E-01 0.500 F 0.290 0.050 21.6 R 0.70 0.69 o 691 0.14 Yes Yes
2021AT2 O C K 2021-01-13.31955 1.000E-05 08:23:02.190 1.500E-01 0.500 F 0.032 0.014 +17° 29' 02.00" 1.000E-01 0.500 F 0.290 -0.119 21.2 R 0.70 0.29 o 691 0.25 Yes Yes
2021AT2 O C K 2021-01-13.32635 1.000E-05 08:22:59.420 1.500E-01 0.500 F 0.032 0.450 +17° 28' 34.50" 1.000E-01 0.500 F 0.290 -0.105 21.6 R 0.70 0.69 o 691 0.97 Yes Yes
2021AB4 O C K 2021-01-13.35835 1.000E-05 09:42:39.630 1.500E-01 0.500 F 0.017 -0.268 -00° 10' 55.40" 1.000E-01 0.500 F 0.278 0.237 20.2 R 0.70 0.29 o 691 0.73 Yes Yes
2021AB4 O C K 2021-01-13.36563 1.000E-05 09:42:36.340 1.500E-01 0.500 F 0.017 -0.175 -00° 10' 59.20" 1.000E-01 0.500 F 0.278 -0.329 20.6 R 0.70 0.68 o 691 0.76 Yes Yes
2021AW11 O C K 2021-01-13.38242 1.000E-05 09:49:28.090 1.500E-01 0.500 F 0.097 -0.247 +00° 16' 01.60" 1.000E-01 0.500 F 0.270 -0.768 o 691 1.62 Yes No
2021AW11 O C K 2021-01-13.38691 1.000E-05 09:49:27.840 1.500E-01 0.500 F 0.097 -0.140 +00° 16' 02.90" 1.000E-01 0.500 F 0.270 -0.042 o 691 0.29 Yes No
2009CD O C K 2021-01-13.39491 1.000E-05 10:31:38.780 1.500E-01 0.500 F 0.103 -0.440 +31° 46' 54.10" 1.000E-01 0.500 F 0.422 -0.626 21.5 R 0.70 1.10 o 691 1.58 Yes Yes
2009CD O C K 2021-01-13.40112 1.000E-05 10:31:36.470 1.500E-01 0.500 F 0.103 -0.175 +31° 46' 36.60" 1.000E-01 0.500 F 0.422 -1.282 21.2 R 0.70 0.80 o 691 2.65 Yes Yes
2009CD O C K 2021-01-13.40732 1.000E-05 10:31:34.110 1.500E-01 0.500 F 0.103 -0.566 +31° 46' 21.30" 1.000E-01 0.500 F 0.422 0.281 21.7 R 0.70 1.30 o 691 1.28 Yes Yes
2020AD3 O C K 2021-01-13.41725 1.000E-05 10:34:21.460 1.500E-01 0.500 F 0.104 -0.320 +01° 21' 25.30" 1.000E-01 0.500 F 0.186 -0.091 19.8 R 0.70 -0.16 o 691 0.67 Yes Yes
2020AD3 O C K 2021-01-13.42239 1.000E-05 10:34:19.190 1.500E-01 0.500 F 0.104 0.085 +01° 21' 36.10" 1.000E-01 0.500 F 0.186 -0.205 19.7 R 0.70 -0.26 o 691 0.45 Yes Yes
2020AD3 O C K 2021-01-13.42752 1.000E-05 10:34:16.850 1.500E-01 0.500 F 0.104 -0.624 +01° 21' 47.20" 1.000E-01 0.500 F 0.186 0.003 o 691 1.26 Yes No
2013FK O C K 2021-01-13.50100 1.000E-05 12:57:34.270 1.500E-01 0.500 F 0.307 -0.128 +15° 26' 11.80" 1.000E-01 0.500 F 0.313 -0.474 20.3 R 0.70 0.12 o 691 0.99 Yes Yes
2013FK O C K 2021-01-13.50787 1.000E-05 12:57:39.550 1.500E-01 0.500 F 0.307 -0.436 +15° 25' 05.80" 1.000E-01 0.500 F 0.313 -0.387 20.5 R 0.70 0.32 o 691 1.17 Yes Yes
2013FK O C K 2021-01-13.51475 1.000E-05 12:57:44.890 1.500E-01 0.500 F 0.307 0.070 +15° 23' 59.80" 1.000E-01 0.500 F 0.313 -0.168 o 691 0.37 Yes No
2020YB5 O C K 2021-01-13.52912 1.000E-05 13:39:07.330 1.500E-01 0.500 F 0.232 -0.260 -07° 03' 28.20" 1.000E-01 0.500 F -0.002 0.122 o 691 0.58 Yes No
2020YB5 O C K 2021-01-13.53974 1.000E-05 13:39:06.760 1.500E-01 0.500 F 0.232 -0.027 -07° 04' 24.20" 1.000E-01 0.500 F -0.002 -0.062 o 691 0.14 Yes No
2016JU33 O C 2021-01-14.15725 1.000E-05 01:18:00.570 1.500E-01 0.500 F -0.272 0.307 +12° 16' 33.30" 1.000E-01 0.500 F 0.344 0.089 20.4 V 0.70 -0.03 o 691 0.64 Yes Yes
2016JU33 O C 2021-01-14.17376 1.000E-05 01:17:58.650 1.500E-01 0.500 F -0.272 0.070 +12° 16' 02.50" 1.000E-01 0.500 F 0.344 -0.140 20.8 V 0.70 0.37 o 691 0.32 Yes Yes
2016NF O C K 2021-01-14.18062 1.000E-05 00:46:58.190 1.500E-01 0.500 F -0.131 -0.081 +08° 50' 36.20" 1.000E-01 0.500 F 0.290 -0.391 21.4 R 0.70 0.79 o 691 0.80 Yes Yes
2016JU33 O C 2021-01-14.18900 1.000E-05 01:17:56.880 1.500E-01 0.500 F -0.272 -0.337 +12° 15' 35.60" 1.000E-01 0.500 F 0.344 1.239 20.6 V 0.70 0.17 o 691 2.60 Yes Yes
2016NF O C K 2021-01-14.19461 1.000E-05 00:47:01.490 1.500E-01 0.500 F -0.131 0.371 +08° 50' 51.50" 1.000E-01 0.500 F 0.290 -0.350 21.8 R 0.70 1.19 o 691 1.03 Yes Yes
2020QQ6 O C K 2021-01-14.20377 1.000E-05 02:57:51.190 1.500E-01 0.500 F -0.241 -0.155 +17° 43' 01.10" 1.000E-01 0.500 F 0.253 0.055 20.7 R 0.70 -0.08 o 691 0.33 Yes Yes
2020OS7 O C K 2021-01-14.20880 1.000E-05 02:37:14.650 1.500E-01 0.500 F -0.156 -0.028 +08° 52' 51.70" 1.000E-01 0.500 F 0.287 -0.144 21.0 R 0.70 -0.86 o 691 0.30 Yes Yes
2020QQ6 O C K 2021-01-14.23137 1.000E-05 02:57:56.420 1.500E-01 0.500 F -0.241 0.337 +17° 43' 14.40" 1.000E-01 0.500 F 0.253 0.411 20.8 R 0.70 0.02 o 691 1.07 Yes Yes
2020OS7 O C K 2021-01-14.23640 1.000E-05 02:37:19.680 1.500E-01 0.500 F -0.156 0.036 +08° 53' 23.30" 1.000E-01 0.500 F 0.287 -0.297 21.9 R 0.70 0.04 o 691 0.60 Yes Yes
2020OC8 O C K 2021-01-14.29380 1.000E-05 04:45:23.830 1.500E-01 0.500 F -0.180 -0.182 +07° 02' 51.00" 1.000E-01 0.500 F 0.317 0.410 20.6 R 0.70 0.06 o 691 0.90 Yes Yes
2021AO O C K 2021-01-14.31194 1.000E-05 04:53:54.390 1.500E-01 0.500 F -0.179 -0.492 +12° 35' 54.30" 1.000E-01 0.500 F 0.104 0.448 21.5 R 0.70 0.52 o 691 1.35 Yes Yes
2020OC8 O C K 2021-01-14.31966 1.000E-05 04:45:26.870 1.500E-01 0.500 F -0.180 0.372 +07° 03' 17.40" 1.000E-01 0.500 F 0.317 0.135 20.7 R 0.70 0.16 o 691 0.79 Yes Yes
2021AO O C K 2021-01-14.33780 1.000E-05 04:54:04.320 1.500E-01 0.500 F -0.179 -0.160 +12° 36' 05.90" 1.000E-01 0.500 F 0.104 -0.048 21.1 R 0.70 0.12 o 691 0.34 Yes Yes
2020OC8 O C K 2021-01-14.34552 1.000E-05 04:45:29.880 1.500E-01 0.500 F -0.180 0.152 +07° 03' 44.20" 1.000E-01 0.500 F 0.317 0.311 20.1 R 0.70 -0.44 o 691 0.70 Yes Yes
2020OK5 O C 2021-01-14.36901 1.000E-05 07:25:48.460 1.500E-01 0.500 F -0.023 0.037 +22° 37' 57.10" 1.000E-01 0.500 F 0.263 -0.333 20.3 V 0.70 0.50 o 691 0.67 Yes Yes
2021AS3 O C K 2021-01-14.37865 1.000E-05 07:33:32.500 1.500E-01 0.500 F -0.015 0.214 +18° 12' 05.40" 1.000E-01 0.500 F 0.200 -0.036 19.5 R 0.70 -0.03 o 691 0.46 Yes Yes
2020OK5 O C 2021-01-14.38608 1.000E-05 07:25:46.020 1.500E-01 0.500 F -0.023 -0.472 +22° 37' 39.20" 1.000E-01 0.500 F 0.263 -0.055 20.5 V 0.70 0.70 o 691 0.95 Yes Yes
2021AS3 O C K 2021-01-14.39272 1.000E-05 07:33:33.880 1.500E-01 0.500 F -0.015 0.363 +18° 10' 32.50" 1.000E-01 0.500 F 0.200 0.052 20.2 R 0.70 0.66 o 691 0.77 Yes Yes
2020OK5 O C 2021-01-14.40163 1.000E-05 07:25:43.880 1.500E-01 0.500 F -0.023 -0.444 +22° 37' 22.70" 1.000E-01 0.500 F 0.263 0.415 20.3 V 0.70 0.50 o 691 1.22 Yes Yes
2021AS3 O C K 2021-01-14.40679 1.000E-05 07:33:35.230 1.500E-01 0.500 F -0.015 -0.269 +18° 08' 59.10" 1.000E-01 0.500 F 0.200 -0.516 19.7 R 0.70 0.15 o 691 1.17 Yes Yes
2021AM4 O C K 2021-01-14.43551 1.000E-05 09:36:47.150 1.500E-01 0.500 F 0.151 0.556 +07° 18' 20.20" 1.000E-01 0.500 F 0.171 -0.103 21.8 R 0.70 0.43 o 691 1.21 Yes Yes
2021AM4 O C K 2021-01-14.45845 1.000E-05 09:36:44.000 1.500E-01 0.500 F 0.151 0.721 +07° 17' 28.40" 1.000E-01 0.500 F 0.171 0.040 21.5 R 0.70 0.13 o 691 1.55 Yes Yes
2016BP14 O C K 2021-01-14.49359 1.000E-05 10:56:17.840 1.500E-01 0.500 F 0.180 0.091 +03° 43' 22.20" 1.000E-01 0.500 F 0.043 0.139 21.5 R 0.70 0.13 o 691 0.33 Yes Yes
2016BP14 O C K 2021-01-14.51833 1.000E-05 10:56:14.400 1.500E-01 0.500 F 0.180 0.207 +03° 43' 46.50" 1.000E-01 0.500 F 0.043 0.275 21.7 R 0.70 0.33 o 691 0.69 Yes Yes
2016BP14 O C K 2021-01-14.54308 1.000E-05 10:56:10.910 1.500E-01 0.500 F 0.180 -0.530 +03° 44' 10.50" 1.000E-01 0.500 F 0.043 0.115 21.1 R 0.70 -0.27 o 691 1.10 Yes Yes
2021AB4 O C K 2021-01-16.40372 1.000E-05 09:30:22.330 1.500E-01 0.500 F 0.158 0.425 -00° 23' 02.10" 1.000E-01 0.500 F 0.213 0.080 20.6 R 0.70 0.07 o 691 0.90 Yes Yes
2020MZ3 O C 2021-01-16.40768 1.000E-05 09:26:04.070 1.500E-01 0.500 F 0.142 -0.376 +13° 46' 34.60" 1.000E-01 0.500 F 0.274 -0.239 20.8 V 0.70 -0.73 o 691 0.89 Yes Yes
2021AB4 O C K 2021-01-16.41441 1.000E-05 09:30:19.490 1.500E-01 0.500 F 0.158 0.135 -00° 23' 03.20" 1.000E-01 0.500 F 0.213 -0.094 20.9 R 0.70 0.36 o 691 0.34 Yes Yes
2020MZ3 O C 2021-01-16.41838 1.000E-05 09:26:02.950 1.500E-01 0.500 F 0.142 -0.466 +13° 46' 43.50" 1.000E-01 0.500 F 0.274 0.440 20.9 V 0.70 -0.63 o 691 1.29 Yes Yes
2020MZ3 O C 2021-01-16.42362 1.000E-05 09:26:02.390 1.500E-01 0.500 F 0.142 -0.680 +13° 46' 47.20" 1.000E-01 0.500 F 0.274 0.117 20.9 V 0.70 -0.63 o 691 1.39 Yes Yes
2021AB4 O C K 2021-01-16.42512 1.000E-05 09:30:16.680 1.500E-01 0.500 F 0.158 0.111 -00° 23' 04.10" 1.000E-01 0.500 F 0.213 -0.084 20.6 R 0.70 0.06 o 691 0.29 Yes Yes
2021AD7 O C H 2021-01-16.43707 1.000E-05 10:32:13.120 1.500E-01 0.500 F 0.255 0.334 +04° 26' 20.00" 1.000E-01 0.500 F 0.049 -0.007 20.9 R 0.70 0.40 o 691 0.67 Yes Yes
2021AZ7 O C K 2021-01-16.43875 1.000E-05 10:42:08.850 1.500E-01 0.500 F 0.169 -0.025 -12° 22' 06.60" 1.000E-01 0.500 F -0.046 -0.408 21.9 R 0.70 0.28 o 691 0.83 Yes Yes
2016BP14 O C K 2021-01-16.44976 1.000E-05 10:51:52.910 1.500E-01 0.500 F 0.120 0.271 +04° 15' 34.30" 1.000E-01 0.500 F 0.093 0.422 21.4 R 0.70 0.03 o 691 1.01 Yes Yes
2021AD7 O C H 2021-01-16.46027 1.000E-05 10:32:13.920 1.500E-01 0.500 F 0.255 -0.178 +04° 25' 58.60" 1.000E-01 0.500 F 0.049 0.755 20.7 R 0.70 0.20 o 691 1.56 Yes Yes
2021AZ7 O C K 2021-01-16.46193 1.000E-05 10:42:05.590 1.500E-01 0.500 F 0.169 -0.414 -12° 20' 43.50" 1.000E-01 0.500 F -0.046 0.473 22.0 R 0.70 0.38 o 691 1.27 Yes Yes
2016BP14 O C K 2021-01-16.47293 1.000E-05 10:51:49.580 1.500E-01 0.500 F 0.120 -0.054 +04° 15' 57.20" 1.000E-01 0.500 F 0.093 0.269 21.8 R 0.70 0.43 o 691 0.55 Yes Yes
2021AD7 O C H 2021-01-16.48346 1.000E-05 10:32:14.790 1.500E-01 0.500 F 0.255 0.331 +04° 25' 35.60" 1.000E-01 0.500 F 0.049 -0.072 20.4 R 0.70 -0.10 o 691 0.68 Yes Yes
2021AZ7 O C K 2021-01-16.48514 1.000E-05 10:42:02.350 1.500E-01 0.500 F 0.169 -0.483 -12° 19' 21.90" 1.000E-01 0.500 F -0.046 -0.337 21.9 R 0.70 0.28 o 691 1.19 Yes Yes
2016BP14 O C K 2021-01-16.49615 1.000E-05 10:51:46.250 1.500E-01 0.500 F 0.120 -0.318 +04° 16' 20.00" 1.000E-01 0.500 F 0.093 -0.017 21.7 R 0.70 0.33 o 691 0.64 Yes Yes
2020TB12 O C H 2021-01-17.07745 1.000E-05 01:52:23.850 1.500E-01 0.500 F -0.262 -0.474 -18° 32' 55.70" 1.000E-01 0.500 F 0.005 0.041 o 691 0.96 Yes No
2020XR O C K 2021-01-17.07885 1.000E-05 02:47:55.700 1.500E-01 0.500 F -0.147 0.620 -06° 36' 09.00" 1.000E-01 0.500 F 0.293 -0.367 20.0 R 0.70 0.36 o 691 1.45 Yes Yes
2020TB12 O C H 2021-01-17.08721 1.000E-05 01:52:22.650 1.500E-01 0.500 F -0.262 -0.019 -18° 32' 29.00" 1.000E-01 0.500 F 0.005 0.341 20.6 R 0.70 1.14 o 691 0.69 Yes Yes
2020XR O C K 2021-01-17.08861 1.000E-05 02:47:59.750 1.500E-01 0.500 F -0.147 0.125 -06° 36' 07.20" 1.000E-01 0.500 F 0.293 0.125 19.8 R 0.70 0.16 o 691 0.35 Yes Yes
2020TB12 O C H 2021-01-17.09681 1.000E-05 01:52:21.430 1.500E-01 0.500 F -0.262 -0.165 -18° 32' 03.20" 1.000E-01 0.500 F 0.005 0.033 20.1 R 0.70 0.64 o 691 0.34 Yes Yes
2020XR O C K 2021-01-17.09821 1.000E-05 02:48:03.770 1.500E-01 0.500 F -0.147 0.198 -06° 36' 06.00" 1.000E-01 0.500 F 0.293 0.026 19.8 R 0.70 0.16 o 691 0.40 Yes Yes
2021AL6 O C K 2021-01-17.10584 1.000E-05 04:07:09.940 1.500E-01 0.500 F -0.202 0.300 -02° 37' 29.90" 1.000E-01 0.500 F 0.227 0.144 20.6 R 0.70 -0.15 o 691 0.66 Yes Yes
2021AL6 O C K 2021-01-17.11549 1.000E-05 04:07:12.040 1.500E-01 0.500 F -0.202 0.059 -02° 37' 25.60" 1.000E-01 0.500 F 0.227 -0.070 20.8 R 0.70 0.05 o 691 0.17 Yes Yes
2021AL6 O C K 2021-01-17.12514 1.000E-05 04:07:14.130 1.500E-01 0.500 F -0.202 -0.305 -02° 37' 21.40" 1.000E-01 0.500 F 0.227 -0.388 20.6 R 0.70 -0.15 o 691 0.99 Yes Yes
2021AF5 O C K 2021-01-17.14757 1.000E-05 02:26:23.580 1.500E-01 0.500 F -0.307 0.162 +18° 16' 30.50" 1.000E-01 0.500 F 0.276 -0.153 20.7 R 0.70 0.52 o 691 0.45 Yes Yes
2016JU33 O C 2021-01-17.15295 1.000E-05 01:12:39.070 1.500E-01 0.500 F -0.312 0.023 +10° 41' 52.80" 1.000E-01 0.500 F 0.419 0.275 20.2 V 0.70 -0.29 o 691 0.56 Yes Yes
2021AF5 O C K 2021-01-17.15628 1.000E-05 02:26:24.550 1.500E-01 0.500 F -0.307 -0.055 +18° 17' 28.30" 1.000E-01 0.500 F 0.276 -0.302 20.6 R 0.70 0.42 o 691 0.63 Yes Yes
2016JU33 O C 2021-01-17.16554 1.000E-05 01:12:37.560 1.500E-01 0.500 F -0.312 0.317 +10° 41' 27.30" 1.000E-01 0.500 F 0.419 0.061 20.4 V 0.70 -0.09 o 691 0.65 Yes Yes
2021AF5 O C K 2021-01-17.16717 1.000E-05 02:26:25.840 1.500E-01 0.500 F -0.307 0.465 +18° 18' 40.60" 1.000E-01 0.500 F 0.276 -0.201 20.4 R 0.70 0.22 o 691 1.03 Yes Yes
2016JU33 O C 2021-01-17.17439 1.000E-05 01:12:36.460 1.500E-01 0.500 F -0.312 -0.135 +10° 41' 09.80" 1.000E-01 0.500 F 0.419 0.359 20.4 V 0.70 -0.09 o 691 0.78 Yes Yes
2021AV7 O C H 2021-01-17.18293 1.000E-05 06:19:38.170 1.500E-01 0.500 F 0.168 -0.139 -29° 45' 47.80" 1.000E-01 0.500 F -0.010 0.381 20.2 R 0.70 0.42 o 691 0.82 Yes Yes
2021AX2 O C K 2021-01-17.18479 1.000E-05 05:35:23.910 1.500E-01 0.500 F -0.045 -0.106 -03° 40' 09.50" 1.000E-01 0.500 F -0.033 -0.046 20.9 R 0.70 0.55 o 691 0.23 Yes Yes
2021AV7 O C H 2021-01-17.19390 1.000E-05 06:19:36.890 1.500E-01 0.500 F 0.168 1.223 -29° 45' 42.70" 1.000E-01 0.500 F -0.010 -0.570 20.1 R 0.70 0.32 o 691 2.71 Yes Yes
2021AX2 O C K 2021-01-17.19577 1.000E-05 05:35:23.570 1.500E-01 0.500 F -0.045 0.346 -03° 39' 26.70" 1.000E-01 0.500 F -0.033 0.424 20.8 R 0.70 0.45 o 691 1.11 Yes Yes
2021AV7 O C H 2021-01-17.20488 1.000E-05 06:19:35.390 1.500E-01 0.500 F 0.168 -0.242 -29° 45' 36.80" 1.000E-01 0.500 F -0.010 -0.762 o 691 1.60 Yes No
2021AX2 O C K 2021-01-17.20676 1.000E-05 05:35:23.180 1.500E-01 0.500 F -0.045 0.058 -03° 38' 44.60" 1.000E-01 0.500 F -0.033 0.157 20.5 R 0.70 0.15 o 691 0.34 Yes Yes
2021AL O C K 2021-01-17.21372 1.000E-05 05:04:12.600 1.500E-01 0.500 F -0.261 -0.242 +20° 59' 14.00" 1.000E-01 0.500 F 0.363 0.059 19.3 R 0.70 -0.01 o 691 0.52 Yes Yes
2021AE2 O C K 2021-01-17.21681 1.000E-05 05:06:58.630 1.500E-01 0.500 F -0.331 0.369 +18° 34' 28.60" 1.000E-01 0.500 F 0.195 0.123 19.7 R 0.70 0.23 o 691 0.80 Yes Yes
2021AE2 O C K 2021-01-17.22294 1.000E-05 05:07:04.500 1.500E-01 0.500 F -0.331 0.202 +18° 34' 46.90" 1.000E-01 0.500 F 0.195 -0.255 o 691 0.66 Yes No
2021AL O C K 2021-01-17.22600 1.000E-05 05:04:02.130 1.500E-01 0.500 F -0.261 0.001 +20° 58' 25.90" 1.000E-01 0.500 F 0.363 -0.005 19.4 R 0.70 0.09 o 691 0.01 Yes Yes
2021AE2 O C K 2021-01-17.22908 1.000E-05 05:07:10.410 1.500E-01 0.500 F -0.331 0.422 +18° 35' 05.60" 1.000E-01 0.500 F 0.195 -0.170 19.4 R 0.70 -0.07 o 691 0.93 Yes Yes
2021AR5 O C K 2021-01-17.23725 1.000E-05 05:58:46.050 1.500E-01 0.500 F -0.086 0.893 -00° 28' 35.90" 1.000E-01 0.500 F 0.047 -0.312 20.3 R 0.70 0.57 o 691 1.92 Yes Yes
2021AR5 O C K 2021-01-17.24553 1.000E-05 05:58:50.120 1.500E-01 0.500 F -0.086 -0.202 -00° 28' 25.50" 1.000E-01 0.500 F 0.047 0.003 20.8 R 0.70 1.07 o 691 0.41 Yes Yes
2021AR5 O C K 2021-01-17.25378 1.000E-05 05:58:54.230 1.500E-01 0.500 F -0.086 -0.461 -00° 28' 16.10" 1.000E-01 0.500 F 0.047 -0.647 20.7 R 0.70 0.97 o 691 1.61 Yes Yes
2020YE5 O C H 2021-01-17.26499 1.000E-05 06:58:42.660 1.500E-01 0.500 F -0.032 0.103 +16° 58' 14.90" 1.000E-01 0.500 F 0.297 -0.102 o 691 0.29 Yes No
2020XU6 O C 2021-01-17.26688 1.000E-05 07:22:25.500 1.500E-01 0.500 F -0.022 -0.293 +03° 57' 51.10" 1.000E-01 0.500 F -0.031 0.107 18.9 V 0.70 0.25 o 691 0.63 Yes Yes
2021AU2 O C K 2021-01-17.26869 1.000E-05 07:35:01.730 1.500E-01 0.500 F -0.108 -0.156 -05° 53' 56.90" 1.000E-01 0.500 F 0.025 -0.159 o 691 0.50 Yes No
2020YE5 O C H 2021-01-17.27240 1.000E-05 06:58:43.450 1.500E-01 0.500 F -0.032 -0.338 +16° 58' 03.10" 1.000E-01 0.500 F 0.297 0.163 o 691 0.75 Yes No
2020XU6 O C 2021-01-17.27430 1.000E-05 07:22:25.500 1.500E-01 0.500 F -0.022 -0.099 +03° 57' 44.50" 1.000E-01 0.500 F -0.031 0.001 19.0 V 0.70 0.35 o 691 0.20 Yes Yes
2021AU2 O C K 2021-01-17.27609 1.000E-05 07:35:02.840 1.500E-01 0.500 F -0.108 -0.265 -05° 53' 30.00" 1.000E-01 0.500 F 0.025 -0.032 19.8 R 0.70 0.17 o 691 0.57 Yes Yes
2020YE5 O C H 2021-01-17.27979 1.000E-05 06:58:44.310 1.500E-01 0.500 F -0.032 0.236 +16° 57' 50.60" 1.000E-01 0.500 F 0.297 -0.124 o 691 0.53 Yes No
2020XU6 O C 2021-01-17.28189 1.000E-05 07:22:25.480 1.500E-01 0.500 F -0.022 -0.190 +03° 57' 38.00" 1.000E-01 0.500 F -0.031 0.150 18.9 V 0.70 0.25 o 691 0.49 Yes Yes
2021AU2 O C K 2021-01-17.28369 1.000E-05 07:35:04.010 1.500E-01 0.500 F -0.108 0.123 -05° 53' 02.20" 1.000E-01 0.500 F 0.025 0.271 20.1 R 0.70 0.46 o 691 0.67 Yes Yes
2021AS3 O C K 2021-01-17.28897 1.000E-05 07:38:19.220 1.500E-01 0.500 F 0.021 0.044 +14° 32' 05.80" 1.000E-01 0.500 F 0.171 0.386 o 691 0.80 Yes No
2021AS3 O C K 2021-01-17.30498 1.000E-05 07:38:19.780 1.500E-01 0.500 F 0.021 0.353 +14° 31' 15.40" 1.000E-01 0.500 F 0.171 0.040 21.3 R 0.70 0.75 o 691 0.73 Yes Yes
2021AP7 O C K 2021-01-17.54489 1.000E-05 09:55:20.490 1.500E-01 0.500 F 0.120 -0.049 +29° 40' 40.60" 1.000E-01 0.500 F 0.319 -0.498 21.2 R 0.70 0.28 o 691 1.01 Yes Yes
2021AP7 O C K 2021-01-17.55398 1.000E-05 09:55:18.600 1.500E-01 0.500 F 0.120 0.186 +29° 40' 40.90" 1.000E-01 0.500 F 0.319 -0.063 21.0 R 0.70 0.08 o 691 0.40 Yes Yes
2021AF5 O C K 2021-01-18.07720 1.000E-05 02:29:18.410 1.500E-01 0.500 F -0.350 -0.118 +19° 59' 06.00" 1.000E-01 0.500 F 0.278 0.220 20.7 R 0.70 0.47 o 691 0.52 Yes Yes
2021AL6 O C K 2021-01-18.08257 1.000E-05 04:10:46.580 1.500E-01 0.500 F -0.252 0.215 -02° 29' 49.50" 1.000E-01 0.500 F 0.091 -0.013 20.7 R 0.70 -0.11 o 691 0.42 Yes Yes
2021AF5 O C K 2021-01-18.08936 1.000E-05 02:29:19.650 1.500E-01 0.500 F -0.350 -0.721 +20° 00' 24.80" 1.000E-01 0.500 F 0.278 0.566 20.6 R 0.70 0.37 o 691 1.90 Yes Yes
2021AL6 O C K 2021-01-18.09509 1.000E-05 04:10:49.220 1.500E-01 0.500 F -0.252 0.004 -02° 29' 43.50" 1.000E-01 0.500 F 0.091 0.077 20.5 R 0.70 -0.31 o 691 0.16 Yes Yes
2021AF5 O C K 2021-01-18.10209 1.000E-05 02:29:21.050 1.500E-01 0.500 F -0.350 0.070 +20° 01' 45.80" 1.000E-01 0.500 F 0.278 -0.143 20.9 R 0.70 0.67 o 691 0.33 Yes Yes
2021AL6 O C K 2021-01-18.10818 1.000E-05 04:10:51.990 1.500E-01 0.500 F -0.252 -0.013 -02° 29' 37.20" 1.000E-01 0.500 F 0.091 0.193 o 691 0.40 Yes No
2020UF7 O C K 2021-01-18.12121 1.000E-05 03:39:29.230 1.500E-01 0.500 F -0.290 -0.056 -01° 50' 31.50" 1.000E-01 0.500 F 0.221 -0.180 21.7 R 0.70 0.46 o 691 0.38 Yes Yes
2020UF7 O C K 2021-01-18.13329 1.000E-05 03:39:31.130 1.500E-01 0.500 F -0.290 -0.083 -01° 50' 10.00" 1.000E-01 0.500 F 0.221 -0.161 21.1 R 0.70 -0.14 o 691 0.37 Yes Yes
2020UF7 O C K 2021-01-18.14533 1.000E-05 03:39:33.010 1.500E-01 0.500 F -0.290 -0.314 -01° 49' 48.40" 1.000E-01 0.500 F 0.221 0.009 20.9 R 0.70 -0.34 o 691 0.63 Yes Yes
2020WD1 O C K 2021-01-18.15173 1.000E-05 03:50:23.450 1.500E-01 0.500 F -0.098 -0.217 +05° 53' 12.40" 1.000E-01 0.500 F 0.268 -0.136 21.5 R 0.70 0.23 o 691 0.52 Yes Yes
2020WD1 O C K 2021-01-18.15845 1.000E-05 03:50:24.100 1.500E-01 0.500 F -0.098 0.026 +05° 53' 24.80" 1.000E-01 0.500 F 0.268 -0.154 21.3 R 0.70 0.03 o 691 0.31 Yes Yes
2020WD1 O C K 2021-01-18.16516 1.000E-05 03:50:24.730 1.500E-01 0.500 F -0.098 -0.027 +05° 53' 37.20" 1.000E-01 0.500 F 0.268 -0.144 21.5 R 0.70 0.23 o 691 0.30 Yes Yes
2021AV7 O C 2021-01-18.17420 1.000E-05 06:17:37.730 1.500E-01 0.500 F 0.083 -0.066 -29° 35' 52.00" 1.000E-01 0.500 F 0.041 -0.550 20.7 V 0.70 0.56 o 691 1.11 Yes Yes
2021AL O C K 2021-01-18.17797 1.000E-05 04:50:53.360 1.500E-01 0.500 F -0.251 0.466 +19° 50' 47.90" 1.000E-01 0.500 F 0.227 -0.510 o 691 1.43 Yes No
2021AV7 O C 2021-01-18.18368 1.000E-05 06:17:36.500 1.500E-01 0.500 F 0.083 -0.363 -29° 35' 45.20" 1.000E-01 0.500 F 0.041 0.335 20.1 V 0.70 -0.04 o 691 0.99 Yes Yes
2021AL O C K 2021-01-18.18591 1.000E-05 04:50:45.710 1.500E-01 0.500 F -0.227 0.082 +19° 50' 11.40" 1.000E-01 0.500 F 0.244 0.207 o 691 0.46 Yes No
2021AV7 O C 2021-01-18.19185 1.000E-05 06:17:35.470 1.500E-01 0.500 F 0.083 -0.213 -29° 35' 40.20" 1.000E-01 0.500 F 0.041 0.216 19.9 V 0.70 -0.24 o 691 0.61 Yes Yes
2021AL O C K 2021-01-18.19408 1.000E-05 04:50:37.850 1.500E-01 0.500 F -0.227 -0.011 +19° 49' 32.70" 1.000E-01 0.500 F 0.244 0.038 o 691 0.08 Yes No
2021AN4 O C K 2021-01-18.19811 1.000E-05 07:24:14.880 1.500E-01 0.500 F 0.012 0.051 +06° 17' 58.30" 1.000E-01 0.500 F 0.058 -0.026 19.8 R 0.70 -0.64 o 691 0.14 Yes Yes
2021AR5 O C K 2021-01-18.20689 1.000E-05 06:07:44.120 1.500E-01 0.500 F 0.045 -0.094 -00° 09' 18.00" 1.000E-01 0.500 F 0.014 0.069 20.0 R 0.70 0.20 o 691 0.24 Yes Yes
2021AN4 O C K 2021-01-18.21056 1.000E-05 07:24:24.660 1.500E-01 0.500 F 0.012 -0.291 +06° 17' 00.60" 1.000E-01 0.500 F 0.058 -0.011 o 691 0.72 Yes No
2021AR5 O C K 2021-01-18.21942 1.000E-05 06:07:49.880 1.500E-01 0.500 F 0.045 -0.094 -00° 09' 03.50" 1.000E-01 0.500 F 0.014 -0.023 19.8 R 0.70 0.00 o 691 0.20 Yes Yes
2021AR5 O C K 2021-01-18.23218 1.000E-05 06:07:55.750 1.500E-01 0.500 F 0.045 0.192 -00° 08' 48.60" 1.000E-01 0.500 F 0.014 0.022 19.8 R 0.70 0.00 o 691 0.39 Yes Yes
2021AS3 O C K 2021-01-18.23686 1.000E-05 07:39:19.070 1.500E-01 0.500 F -0.025 -0.054 +13° 47' 09.10" 1.000E-01 0.500 F 0.264 -0.103 21.2 R 0.70 0.40 o 691 0.24 Yes Yes
2021BG2 O C K 2021-01-18.24384 1.000E-05 09:03:14.800 1.500E-01 0.500 F 0.069 -0.192 -14° 15' 25.80" 1.000E-01 0.500 F -0.145 0.002 21.3 R 0.70 0.24 o 691 0.38 Yes Yes
2021BZ O C K 2021-01-18.24828 1.000E-05 09:10:58.560 1.500E-01 0.500 F 0.121 0.281 -17° 45' 24.40" 1.000E-01 0.500 F -0.108 -0.036 20.3 R 0.70 -0.31 o 691 0.58 Yes Yes
2021AS3 O C K 2021-01-18.25498 1.000E-05 07:39:19.570 1.500E-01 0.500 F -0.025 0.005 +13° 46' 23.00" 1.000E-01 0.500 F 0.264 -0.274 20.9 R 0.70 0.09 o 691 0.57 Yes Yes

[1-200] [201-400] [401-600] [601-800] [801-1000] [1001-1200] [1201-1400] [1401-1600] [1601-1800] [1801-2000] [2001-2200] [2201-2400] [2401-2600] [2601-2800] [2801-3000] [3001-3200] [3201-3400] [3401-3600] [3601-3800] [3801-4000] [4001-4200] [4201-4400] [4401-4600] [4601-4800] [4801-5000] [5001-5200] [5201-5400] [5401-5600] [5601-5800] [5801-6000] [6001-6200] [6201-6400] [6401-6600] [6601-6800] [6801-7000] [7001-7200] [7201-7400] [7401-7600] [7601-7800] [7801-8000] [8001-8200] [8201-8400] [8401-8600] [8601-8800] [8801-9000] [9001-9200] [9201-9400] [9401-9600] [9601-9800] [9801-10000] [10001-10200] [10201-10400] [10401-10600] [10601-10800] [10801-11000] [11001-11200] [11201-11400] [11401-11600] [11601-11800] [11801-12000] [12001-12200] [12201-12400] [12401-12600] [12601-12800] [12801-13000] [13001-13200] [13201-13400] [13401-13600] [13601-13800] [13801-14000] [14001-14200] [14201-14400] [14401-14600] [14601-14800] [14801-15000] [15001-15200] [15201-15400] [15401-15600] [15601-15800] [15801-16000] [16001-16200] [16201-16400] [16401-16600] [16601-16800] [16801-17000] [17001-17200] [17201-17400] [17401-17600] [17601-17800] [17801-18000] [18001-18200] [18201-18400] [18401-18600] [18601-18800] [18801-19000] [19001-19200] [19201-19400] [19401-19600] [19601-19800] [19801-20000] [20001-20200] [20201-20400] [20401-20600] [20601-20800] [20801-21000] [21001-21200] [21201-21400] [21401-21600] [21601-21800] [21801-22000] [22001-22200] [22201-22400] [22401-22600] [22601-22800] [22801-23000] [23001-23200] [23201-23400] [23401-23600] [23601-23800] [23801-24000] [24001-24200] [24201-24400] [24401-24600] [24601-24800] [24801-25000] [25001-25200] [25201-25400] [25401-25600] [25601-25800] [25801-26000] [26001-26200] [26201-26400] [26401-26600] [26601-26800] [26801-27000] [27001-27200] [27201-27400] [27401-27600] [27601-27800] [27801-28000] [28001-28200] [28201-28400] [28401-28600] [28601-28800] [28801-29000] [29001-29200] [29201-29400] [29401-29600] [29601-29800] [29801-30000] [30001-30200] [30201-30400] [30401-30600] [30601-30800] [30801-31000] [31001-31200] [31201-31400] [31401-31600] [31601-31800] [31801-32000] [32001-32200] [32201-32400] [32401-32600] [32601-32800] [32801-33000] [33001-33200] [33201-33400] [33401-33600] [33601-33800] [33801-34000] [34001-34200] [34201-34400] [34401-34600] [34601-34800] [34801-35000] [35001-35200] [35201-35400] [35401-35600] [35601-35800] [35801-36000] [36001-36200] [36201-36400] [36401-36600] [36601-36800] [36801-37000] [37001-37200] [37201-37400] [37401-37600] [37601-37800] [37801-38000] [38001-38200] [38201-38400] [38401-38600] [38601-38800] [38801-39000] [39001-39200] [39201-39400] [39401-39600] [39601-39800] [39801-40000] [40001-40200] [40201-40400] [40401-40600] [40601-40800] [40801-41000] [41001-41200] [41201-41400] [41401-41600] [41601-41800] [41801-42000] [42001-42200] [42201-42400] [42401-42600] [42601-42800] [42801-43000] [43001-43200] [43201-43400] [43401-43600] [43601-43800] [43801-44000] [44001-44200] [44201-44400] [44401-44600] [44601-44800] [44801-45000] [45001-45200] [45201-45400] [45401-45600] [45601-45800] [45801-46000] [46001-46200] [46201-46400] [46401-46600] [46601-46800] [46801-47000] [47001-47200] [47201-47400] [47401-47600] [47601-47800] [47801-48000] [48001-48200] [48201-48400] [48401-48600] [48601-48800] [48801-49000] [49001-49200] [49201-49400] [49401-49600] [49601-49800] [49801-50000] [50001-50200] [50201-50388]